This is the latest recevied weather packets stored in our database for station/object KE5VT. If no packets are shown the sender has not sent any weather packets the latest 10 day(s).
| Time | Temp. | Humidity | Pressure | Rain* | Wind** | Luminosity | Snow |
|---|---|---|---|---|---|---|---|
| 1787449165 | 23.89° C | 93% | 1011 hPa | 0 mm | - | 0 W/m² | - |
| 1787448864 | 23.89° C | 93% | 1010.8 hPa | 0 mm | - | 0 W/m² | - |
| 1787448560 | 23.89° C | 93% | 1010.9 hPa | 0 mm | - | 0 W/m² | - |
| 1787448257 | 23.89° C | 92% | 1010.8 hPa | 0 mm | - | 0 W/m² | - |
| 1787447956 | 23.89° C | 92% | 1010.9 hPa | 0 mm | - | 0 W/m² | - |
| 1787447655 | 23.89° C | 92% | 1010.9 hPa | 0 mm | - | 0 W/m² | - |
| 1787447351 | 23.89° C | 92% | 1011 hPa | 0 mm | - | 0 W/m² | - |
| 1787447048 | 24.44° C | 92% | 1010.9 hPa | 0 mm | - | 0 W/m² | - |
| 1787446748 | 24.44° C | 91% | 1010.7 hPa | 0 mm | - | 0 W/m² | - |
| 1787446444 | 24.44° C | 91% | 1010.9 hPa | 0 mm | - | 0 W/m² | - |
| 1787446139 | 24.44° C | 91% | 1010.9 hPa | 0 mm | - | 0 W/m² | - |
| 1787445835 | 24.44° C | 91% | 1010.8 hPa | 0 mm | - | 0 W/m² | - |
| 1787445532 | 24.44° C | 91% | 1010.7 hPa | 0 mm | - | 0 W/m² | - |
| 1787445227 | 24.44° C | 91% | 1010.6 hPa | 0 mm | - | 0 W/m² | - |
| 1787444921 | 24.44° C | 91% | 1010.6 hPa | 0 mm | - | 0 W/m² | - |
| 1787444618 | 25° C | 90% | 1010.5 hPa | 0 mm | - | 0 W/m² | - |
| 1787444314 | 25° C | 90% | 1010.4 hPa | 0 mm | - | 0 W/m² | - |
| 1787444013 | 25° C | 89% | 1010.4 hPa | 0 mm | - | 1 W/m² | - |
| 1787443712 | 25.56° C | 89% | 1010.3 hPa | 0 mm | - | 1 W/m² | - |
| 1787443408 | 25.56° C | 87% | 1010.5 hPa | 0 mm | - | 3 W/m² | - |
| 1787443107 | 25.56° C | 87% | 1010.6 hPa | 0 mm | - | 6 W/m² | - |
| 1787442802 | 25.56° C | 87% | 1010.3 hPa | 0 mm | - | 11 W/m² | - |
| 1787442499 | 26.11° C | 86% | 1010.3 hPa | 0 mm | - | 13 W/m² | - |
| 1787442195 | 26.11° C | 85% | 1010 hPa | 0 mm | - | 13 W/m² | - |
| 1787441890 | 25.56° C | 85% | 1009.9 hPa | 0 mm | - | 9 W/m² | - |
* Rain latest hour (hover to see other rain measurements)
** Current wind speed in m/s (hover to see current wind gust speed)